Regional Weather Roundup
Issued by NWS Wilmington, NC

Home | Current Version | Previous Version | Text Only | Print | Product List | Glossary On
Versions: 1 2 3 4 5 6 7 8 9 10 11 12 13 14 15 16 17 18 19 20 21 22 23 24 25 26 27 28 29 30 31 32 33 34 35 36 37 38 39 40 41 42 43 44 45 46 47 48 49 50
000
ASUS42 KILM 201910
RWRILM
RWRILM
REGIONAL HOURLY WEATHER ROUNDUP
NATIONAL WEATHER SERVICE WILMINGTON NC
300 PM EDT WED AUG 20 2014

NOTE: "FAIR" INDICATES FEW OR NO CLOUDS BELOW 12,000 FEET WITH NO
SIGNIFICANT WEATHER AND/OR OBSTRUCTIONS TO VISIBILITY.

...............WFO WILMINGTON COUNTY WARNING AREA...............

......COASTAL NC AND SC COUNTIES......

CITY           SKY/WX    TMP DP  RH WIND       PRES   REMARKS
WILMINGTON     LGT RAIN  79  76  90 S9        29.97F
SOUTHPORT      MOSUNNY   88  76  67 SW5       29.98F HX  98
N MYRTLE BEACH SUNNY     85  76  74 S10       29.97S HX  94
MYRTLE BEACH   MOSUNNY   88  75  66 S12       29.98F HX  97

......INLAND NC AND SC COUNTIES.......

CITY           SKY/WX    TMP DP  RH WIND       PRES   REMARKS
LUMBERTON      TSTM      76  72  87 SE14G20   29.96S FOG
ELIZABETHTOWN  MOSUNNY   82  74  75 SE6G16    29.97F
WHITEVILLE     HVY RAIN  75  71  87 N15G30    30.00R VSB 3/4
FLORENCE       SUNNY     91  69  48 N3        29.96F HX  96
DARLINGTON     MOSUNNY   90  72  55 S6        29.97F HX  96

....................REST OF NORTH CAROLINA......................

.........EASTERN NC.........

CITY           SKY/WX    TMP DP  RH WIND       PRES   REMARKS
CAPE HATTERAS  MOSUNNY   83  73  72 VRB7      29.96F
JACKSONVILLE   MOSUNNY   90  72  55 CALM      29.96F HX  96
MOREHEAD CITY  MOSUNNY   85  75  72 CALM      29.96F HX  93
KENANSVILLE    MOSUNNY   85  70  60 CALM      29.97F HX  90
NEW BERN       MOSUNNY   89  71  55 NW3       29.97F HX  95
ELIZABETH CITY SUNNY     84  71  65 E7        29.96F

.........CENTRAL NC.........

CITY           SKY/WX    TMP DP  RH WIND       PRES   REMARKS
RALEIGH DURHAM MOSUNNY   87  71  58 SE7       29.96F HX  93
ROCKY MOUNT    MOSUNNY   84  70  62 CALM      29.97F
ROANOKE RAPIDS NOT AVBL
FAYETTEVILLE   PTSUNNY   84  74  71 SW10      29.96S HX  91
HOFFMAN        MOSUNNY   87  72  61 VRB3      29.98F HX  93

.........WESTERN NC.........

CITY           SKY/WX    TMP DP  RH WIND       PRES   REMARKS
CHARLOTTE      MOSUNNY   89  67  47 VRB3      30.00F HX  92
GREENSBORO     PTSUNNY   87  71  58 W10       29.99S HX  93
HICKORY        NOT AVBL
BOONE          NOT AVBL
ASHEVILLE      NOT AVBL

.....................REST OF SOUTH CAROLINA.....................

.........EASTERN SC.........

CITY           SKY/WX    TMP DP  RH WIND       PRES   REMARKS
CHARLESTON     MOSUNNY   94  72  48 VRB6      29.98F HX 102
BEAUFORT MCAS  PTSUNNY   93  72  50 NW10      29.99F HX 101
HILTON HEAD    NOT AVBL

.........CENTRAL SC.........

CITY           SKY/WX    TMP DP  RH WIND       PRES   REMARKS
COLUMBIA       MOSUNNY   95  66  38 W7        29.97F HX  98
ORANGEBURG     SUNNY     92  69  47 VRB3      29.98F HX  97
SUMTER SHAW    SUNNY     91  72  52 CALM      29.96F HX  99

.........WESTERN SC.........

CITY           SKY/WX    TMP DP  RH WIND       PRES   REMARKS
GREENVILLE     NOT AVBL
ROCK HILL      MOSUNNY   89  69  51 VRB3      30.00F HX  93
ANDERSON       SUNNY     91  69  48 SW8       30.02F HX  96
CLEMSON        NOT AVBL
GREENWOOD      MOSUNNY   94  63  35 CALM      30.01F HX  95


...................COASTAL AND OFFSHORE REPORTS..................

................LOCAL PIERS AND NC RESERVE................


STATION/POSITION TIME  SKY/WX   TEMP    WIND        PRES    VSBY
                                AIR SEA DIR/SP/G
                 (UTC)          (F)     (DEG/KT/KT) (MB)    (MI)
JOHNY MRCER PIER 1900            80 85  210/ 10/ 11 1015.0R
NC RESRV MASNBRO 1800            81     190/  5     1015.0S
OCEAN CREST PIER 1800            83 86  170/  9/ 10 1014.4F
SPRINGMAID  PIER 1900            83 83  180/ 10/ 12 1014.9F


................COASTAL AND OFFSHORE BUOYS................


STATION/POSITION TIME  SKY/WX   TEMP    WIND        PRES    VSBY
                                AIR SEA DIR/SP/G
                 (UTC)          (F)     (DEG/KT/KT) (MB)    (MI)
DIMNDSHOAL 41025 1900            78     320/  8/ 12 1014.4S
WVE H/P(F/S)=  2/ 7 WND WVE H/P(F/S)=  2/ 3 SWL H/P/D(F/S/D)=  2/150/ 7

CAPE LOOKOUT     1800            81     130/  6/  7 1015.2R
ONSLOW BAY 41036 1900            81 85  190/  2/  4 1014.9S
WVE H/P(F/S)=  3/ 6 WND WVE H/P(F/S)=  2/ 4 SWL H/P/D(F/S/D)=  3/210/ 6

5 WRITEBCH 41038 1900            78 83  190/ 10/ 12   N/A
MASONBORO  41110 1900               83                N/A
WVE H/P(F/S)=  2/ 6 WND WVE H/P(F/S)=  2/ 6

WILM HARBR 41108 1900               85                N/A
WVE H/P(F/S)=  2/ 5 WND WVE H/P(F/S)=  2/ 5

27WRITEBCH 41037 1800            79 84  170/  6/  8 1015.3F
FRYING PAN 41013 NOT AVBL
SUNST NRSH 41024 1800            84     200/ 12/ 12 1014.8F
CAPRS NRSH 41029 1800            85     200/ 10/ 12   N/A
EDISTO     41004 1900            82 84  220/ 12/ 14 1015.0F
WVE H/P(F/S)=  3/ 6 WND WVE H/P(F/S)=  3/ 5 SWL H/P/D(F/S/D)=  2/ 6



..........OFFSHORE BUOYS BEYOND 100 NM OFFSHORE...........
.....IN A TRIANGLE---HAT TO BERMUDA TO BAHAMAS TO HAT.....


STATION/POSITION TIME  SKY/WX   TEMP    WIND        PRES    VSBY
                                AIR SEA DIR/SP/G
                 (UTC)          (F)     (DEG/KT/KT) (MB)    (MI)
150E HAT   41001 NOT AVBL
W BERMUDA  41048 1827            83 82  220/ 17/ 19 1017.3F
WVE H/P(F/S)=  5/ 7 WND WVE H/P(F/S)=  5/ 7 SWL H/P/D(F/S/D)=  2/310/11

ATLANTIC S 41049 1837            84 87   50/  2/  4 1020.2F
WVE H/P(F/S)=  3/ 9 SWL H/P/D(F/S/D)=  3/110/ 9

E BAHAMAS  41046 1806            84 86   80/ 10/ 12 1018.8F
WVE H/P(F/S)=  3/ 6 WND WVE H/P(F/S)=  2/ 3 SWL H/P/D(F/S/D)=  3/130/ 6

NE BAHAMAS 41047 1816            84 85  190/  8/  8 1020.2F
WVE H/P(F/S)=  3/ 7 WND WVE H/P(F/S)=  2/ 4 SWL H/P/D(F/S/D)=  2/120/ 7

120E CANVRL41010 1900            84 86  280/  6/  8 1018.4F
WVE H/P(F/S)=  2/ 4 WND WVE H/P(F/S)=  2/ 4 SWL H/P/D(F/S/D)=  2/230/ 4


END


USA.gov is the U.S. government's official web portal to all federal, state and local government web resources and services.